| time (UTC) | temp C | wind direction | speed KPH | gust KPH | rain 1hr cm | rain 24hr cm | rain mn cm | humidity % | barometer mb |
| 20260901113021 | 23 | 287 | 0.0 | 9.7 | 0.00 | 0.00 | 0.00 | 53 | 1021.4 |
| 20260901111520 | 22 | 294 | 0.0 | 8.0 | 0.00 | 0.00 | 0.00 | 55 | 1021.4 |
| 20260901110019 | 22 | 261 | 0.0 | 9.7 | 0.00 | 0.00 | 0.00 | 55 | 1021.4 |
| 20260901104531 | 22 | 186 | 1.6 | 6.4 | 0.00 | 0.00 | 0.00 | 56 | 1021.5 |
| 20260901103020 | 22 | 290 | 1.6 | 9.7 | 0.00 | 0.00 | 0.00 | 58 | 1021.5 |
| 20260901101515 | 21 | 317 | 1.6 | 8.0 | 0.00 | 0.00 | 0.00 | 61 | 1021.7 |
| 20260901100011 | 21 | 265 | 0.0 | 6.4 | 0.00 | 0.00 | 0.00 | 63 | 1021.7 |
| 20260901094511 | 21 | 290 | 0.0 | 4.8 | 0.00 | 0.00 | 0.00 | 65 | 1021.8 |
| 20260901093006 | 20 | 290 | 0.0 | 8.0 | 0.00 | 0.00 | 0.00 | 66 | 1021.8 |
| 20260901091510 | 20 | 284 | 0.0 | 6.4 | 0.00 | 0.00 | 0.00 | 68 | 1021.9 |
| 20260901090005 | 20 | 286 | 0.0 | 4.8 | 0.00 | 0.00 | 0.00 | 67 | 1021.9 |
| 20260901084605 | 19 | 293 | 0.0 | 4.8 | 0.00 | 0.00 | 0.00 | 69 | 1022.0 |
| 20260901083056 | 18 | 294 | 0.0 | 4.8 | 0.00 | 0.00 | 0.00 | 72 | 1021.9 |
| 20260901081554 | 18 | 292 | 0.0 | 0.0 | 0.00 | 0.00 | 0.00 | 74 | 1021.9 |
| 20260901080106 | 18 | 292 | 0.0 | 1.6 | 0.00 | 0.00 | 0.00 | 74 | 1021.8 |
| 20260901074547 | 17 | 293 | 0.0 | 3.2 | 0.00 | 0.00 | 0.00 | 76 | 1021.7 |
| 20260901073045 | 17 | 293 | 0.0 | 1.6 | 0.00 | 0.00 | 0.00 | 78 | 1021.7 |
| 20260901071532 | 17 | 293 | 0.0 | 1.6 | 0.00 | 0.00 | 0.00 | 79 | 1021.7 |
| 20260901070044 | 16 | 293 | 0.0 | 1.6 | 0.00 | 0.00 | 0.00 | 81 | 1021.7 |
| 20260901064526 | 16 | 293 | 0.0 | 0.0 | 0.00 | 0.00 | 0.00 | 84 | 1021.7 |
| 20260901063027 | 15 | 293 | 0.0 | 0.0 | 0.00 | 0.00 | 0.00 | 86 | 1021.6 |
| 20260901061522 | 14 | 293 | 0.0 | 0.0 | 0.00 | 0.00 | 0.00 | 88 | 1021.5 |
| 20260901060032 | 14 | 293 | 0.0 | 0.0 | 0.00 | 0.00 | 0.00 | 89 | 1021.4 |
| 20260901054525 | 13 | 293 | 0.0 | 0.0 | 0.00 | 0.00 | 0.00 | 92 | 1021.4 |
| 20260901053020 | 12 | 293 | 0.0 | 0.0 | 0.00 | 0.00 | 0.00 | 92 | 1021.3 |
| 20260901051522 | 12 | 293 | 0.0 | 0.0 | 0.00 | 0.00 | 0.00 | 91 | 1021.4 |
| 20260901050017 | 12 | 293 | 0.0 | 0.0 | 0.00 | 0.00 | 0.00 | 91 | 1021.3 |
| 20260901044519 | 12 | 293 | 0.0 | 0.0 | 0.00 | 0.00 | 0.00 | 91 | 1021.3 |
| 20260901043017 | 12 | 293 | 0.0 | 0.0 | 0.00 | 0.00 | 0.00 | 90 | 1021.2 |
| 20260901041512 | 13 | 293 | 0.0 | 0.0 | 0.00 | 0.00 | 0.00 | 90 | 1021.2 |
| 20260901040016 | 13 | 293 | 0.0 | 0.0 | 0.00 | 0.00 | 0.00 | 90 | 1021.1 |
| 20260901034512 | 13 | 293 | 0.0 | 0.0 | 0.00 | 0.00 | 0.00 | 90 | 1021.0 |
| 20260901033027 | 13 | 293 | 0.0 | 0.0 | 0.00 | 0.00 | 0.00 | 90 | 1021.0 |
| 20260901031515 | 13 | 293 | 0.0 | 0.0 | 0.00 | 0.00 | 0.00 | 90 | 1021.1 |
| 20260901030009 | 13 | 293 | 0.0 | 0.0 | 0.00 | 0.00 | 0.00 | 89 | 1021.1 |
| 20260901024509 | 13 | 293 | 0.0 | 0.0 | 0.00 | 0.05 | 0.00 | 89 | 1021.0 |
| 20260901023008 | 13 | 293 | 0.0 | 0.0 | 0.00 | 0.05 | 0.00 | 89 | 1021.0 |
| 20260901021507 | 13 | 293 | 0.0 | 0.0 | 0.00 | 0.05 | 0.00 | 89 | 1021.0 |
| 20260901020006 | 13 | 293 | 0.0 | 0.0 | 0.00 | 0.05 | 0.00 | 89 | 1020.9 |
| 20260901014505 | 13 | 293 | 0.0 | 0.0 | 0.00 | 0.33 | 0.00 | 89 | 1020.8 |
| 20260901013003 | 13 | 293 | 0.0 | 0.0 | 0.00 | 0.33 | 0.00 | 88 | 1020.7 |
| 20260901011501 | 13 | 293 | 0.0 | 0.0 | 0.00 | 0.33 | 0.00 | 88 | 1020.7 |
| 20260901010100 | 13 | 293 | 0.0 | 0.0 | 0.00 | 0.33 | 0.00 | 87 | 1020.6 |
| 20260901004601 | 13 | 293 | 0.0 | 0.0 | 0.00 | 0.89 | 0.00 | 87 | 1020.5 |
| 20260901003106 | 13 | 293 | 0.0 | 0.0 | 0.00 | 0.89 | 0.00 | 88 | 1020.5 |
| 20260901001556 | 13 | 293 | 0.0 | 0.0 | 0.00 | 0.89 | 0.00 | 86 | 1020.4 |
| 20260901000054 | 14 | 293 | 0.0 | 0.0 | 0.00 | 0.89 | 0.00 | 85 | 1020.4 |
| 20260831234552 | 14 | 293 | 0.0 | 0.0 | 0.00 | 0.89 | 0.00 | 85 | 1020.4 |
| 20260831233050 | 15 | 293 | 0.0 | 0.0 | 0.00 | 0.89 | 0.00 | 84 | 1020.3 |
| 20260831231557 | 15 | 293 | 0.0 | 0.0 | 0.00 | 0.89 | 0.00 | 84 | 1020.3 |
| 20260831230049 | 15 | 293 | 0.0 | 0.0 | 0.00 | 0.89 | 0.00 | 83 | 1020.3 |
| 20260831224546 | 15 | 293 | 0.0 | 0.0 | 0.00 | 0.89 | 0.00 | 82 | 1020.3 |
| 20260831223045 | 15 | 293 | 0.0 | 0.0 | 0.00 | 0.89 | 0.00 | 82 | 1020.2 |
| 20260831221545 | 15 | 293 | 0.0 | 0.0 | 0.00 | 0.89 | 0.00 | 83 | 1020.2 |
| 20260831220042 | 15 | 293 | 0.0 | 0.0 | 0.00 | 0.89 | 0.00 | 81 | 1020.2 |
| 20260831214540 | 15 | 293 | 0.0 | 0.0 | 0.00 | 0.89 | 0.89 | 80 | 1020.0 |
| 20260831213043 | 16 | 293 | 0.0 | 0.0 | 0.00 | 0.89 | 0.89 | 79 | 1020.0 |
| 20260831211537 | 16 | 293 | 0.0 | 0.0 | 0.00 | 0.89 | 0.89 | 78 | 1019.9 |
| 20260831210035 | 16 | 293 | 0.0 | 0.0 | 0.00 | 0.89 | 0.89 | 79 | 1019.8 |
| 20260831204534 | 16 | 293 | 0.0 | 0.0 | 0.00 | 0.89 | 0.89 | 77 | 1019.6 |
| 20260831203034 | 16 | 293 | 0.0 | 0.0 | 0.00 | 0.89 | 0.89 | 76 | 1019.5 |
| 20260831201537 | 16 | 293 | 0.0 | 1.6 | 0.00 | 0.89 | 0.89 | 76 | 1019.3 |
| 20260831200030 | 17 | 293 | 0.0 | 6.4 | 0.00 | 0.89 | 0.89 | 77 | 1019.2 |
| 20260831194552 | 17 | 223 | 0.0 | 4.8 | 0.00 | 0.89 | 0.89 | 78 | 1019.1 |
| 20260831193028 | 17 | 255 | 0.0 | 8.0 | 0.00 | 0.89 | 0.89 | 77 | 1019.0 |
| 20260831191526 | 17 | 161 | 0.0 | 4.8 | 0.00 | 0.89 | 0.89 | 77 | 1018.9 |
| 20260831190033 | 17 | 295 | 1.6 | 9.7 | 0.00 | 0.89 | 0.89 | 76 | 1018.8 |
| 20260831184524 | 18 | 256 | 0.0 | 3.2 | 0.00 | 0.89 | 0.89 | 78 | 1018.6 |
| 20260831183022 | 18 | 232 | 0.0 | 1.6 | 0.00 | 0.89 | 0.89 | 74 | 1018.4 |
| 20260831181521 | 19 | 233 | 0.0 | 4.8 | 0.00 | 0.89 | 0.89 | 70 | 1018.3 |
| 20260831180021 | 19 | 275 | 0.0 | 3.2 | 0.00 | 0.89 | 0.89 | 69 | 1018.0 |
| 20260831174531 | 19 | 275 | 0.0 | 1.6 | 0.00 | 0.89 | 0.89 | 67 | 1017.7 |
| 20260831173016 | 19 | 275 | 0.0 | 1.6 | 0.00 | 0.89 | 0.89 | 66 | 1017.4 |
| 20260831171512 | 20 | 274 | 0.0 | 8.0 | 0.00 | 0.89 | 0.89 | 65 | 1017.2 |
| 20260831170013 | 21 | 311 | 0.0 | 8.0 | 0.00 | 0.89 | 0.89 | 60 | 1017.1 |
| 20260831164510 | 22 | 136 | 0.0 | 9.7 | 0.00 | 0.89 | 0.89 | 55 | 1016.8 |
| 20260831163010 | 22 | 101 | 1.6 | 14.5 | 0.00 | 0.89 | 0.89 | 54 | 1016.7 |
| 20260831161511 | 22 | 273 | 0.0 | 4.8 | 0.00 | 0.89 | 0.89 | 55 | 1016.4 |
| 20260831160009 | 22 | 238 | 3.2 | 14.5 | 0.00 | 0.89 | 0.89 | 55 | 1016.6 |
| 20260831154513 | 23 | 276 | 1.6 | 8.0 | 0.00 | 0.89 | 0.89 | 53 | 1016.3 |
| 20260831153009 | 23 | 329 | 1.6 | 8.0 | 0.00 | 0.89 | 0.89 | 52 | 1016.3 |
| 20260831151508 | 24 | 272 | 3.2 | 14.5 | 0.00 | 0.89 | 0.89 | 48 | 1016.2 |
| 20260831150008 | 24 | 190 | 0.0 | 9.7 | 0.00 | 0.89 | 0.89 | 48 | 1016.0 |
| 20260831144506 | 24 | 265 | 1.6 | 12.9 | 0.00 | 0.89 | 0.89 | 47 | 1016.0 |
| 20260831143107 | 23 | 230 | 0.0 | 12.9 | 0.00 | 0.89 | 0.89 | 49 | 1016.1 |
| 20260831141505 | 23 | 313 | 0.0 | 9.7 | 0.00 | 0.89 | 0.89 | 46 | 1016.1 |
| 20260831140007 | 24 | 272 | 1.6 | 11.3 | 0.00 | 0.89 | 0.89 | 43 | 1016.1 |
| 20260831134505 | 25 | 292 | 3.2 | 11.3 | 0.00 | 0.89 | 0.89 | 43 | 1016.2 |
| 20260831133005 | 24 | 223 | 3.2 | 12.9 | 0.00 | 0.89 | 0.89 | 44 | 1016.4 |
| 20260831131605 | 23 | 246 | 0.0 | 4.8 | 0.00 | 0.89 | 0.89 | 50 | 1016.4 |
| 20260831130106 | 23 | 288 | 1.6 | 14.5 | 0.00 | 0.89 | 0.89 | 48 | 1016.5 |
| 20260831124608 | 23 | 311 | 0.0 | 17.7 | 0.00 | 0.89 | 0.89 | 53 | 1016.7 |
| 20260831123059 | 23 | 300 | 3.2 | 9.7 | 0.00 | 0.89 | 0.89 | 51 | 1016.7 |
| 20260831121555 | 23 | 295 | 1.6 | 9.7 | 0.00 | 0.89 | 0.89 | 52 | 1016.7 |
| 20260831120054 | 22 | 296 | 1.6 | 9.7 | 0.00 | 0.89 | 0.89 | 53 | 1016.8 |
| 20260831114557 | 22 | 322 | 1.6 | 12.9 | 0.00 | 0.89 | 0.89 | 53 | 1016.8 |
| 20260831113057 | 22 | 257 | 1.6 | 9.7 | 0.00 | 0.89 | 0.89 | 55 | 1016.7 |